Location: Unspecified
(0.0000°N, 0.0000°E)
Time: 13:18:49
(UTC+00:00)

SL-12 DEB - Pass Details

Date: 29 April 2025
Orbit: 905 x 18020 km, 65.1° (Epoch: 09 July)

Event Time Altitude Azimuth Distance (km) Brightness Sun altitude
Rises 20:34:22 0° 337° (NNW) 22,921 ? -37.7°
Reaches altitude 10° 21:06:40 10° 336° (NNW) 22,507 ? -45.3°
Maximum altitude 23:04:59 42° 272° (W) 9,481 ? -70.4°
Enters shadow 23:19:19 35° 235° (SW) 7,033 ? -72.5°
